Regional Weather Roundup
Issued by NWS

Home | Current Version | Previous Version | Text Only | Print | Product List | Glossary Off
Versions: 1 2 3 4 5 6 7 8 9 10 11 12 13 14 15 16 17 18 19 20 21 22 23 24 25 26 27 28 29 30 31 32 33 34 35 36 37 38 39 40 41 42 43 44 45 46 47 48 49 50

000
ASUS43 KLOT 120606
RWRIL

ILLINOIS REGIONAL WEATHER ROUNDUP
NATIONAL WEATHER SERVICE CHICAGO/ROMEOVILLE IL
100 AM CDT SAT JUL 12 2014

NOTE: "FAIR" INDICATES FEW OR NO CLOUDS BELOW 12,000 FEET WITH NO
SIGNIFICANT WEATHER AND/OR OBSTRUCTIONS TO VISIBILITY.

* THESE STATIONS ARE NOT UNDER NWS QUALITY CONTROL. THEY ALSO MAY NOT
  REPORT WEATHER SUCH AS PRECIPITATION OR FOG.

ILZ001-002-007-009-015-016-024-120700-
NORTHWEST ILLINOIS

CITY           SKY/WX    TMP DP  RH WIND       PRES   REMARKS
MOLINE         MOCLDY    72  66  81 SE3       30.05F
6HR MIN TEMP:  72; 6HR MAX TEMP:  78;

STERLING*      MOCLDY    70  64  83 SE5       30.08S
SAVANNA*       MOCLDY    71  64  78 CALM      30.06F
$$

ILZ003-004-008-010-011-017-018-120700-
NORTH CENTRAL ILLINOIS

CITY           SKY/WX    TMP DP  RH WIND       PRES   REMARKS
ROCKFORD       MOCLDY    71  61  70 S8        30.10F
6HR MIN TEMP:  71; 6HR MAX TEMP:  75;

FREEPORT*      MOCLDY    68  64  86 SE3       30.11S
ROCHELLE*      MOCLDY    69  62  77 SE5       30.10F
DE KALB*       MOCLDY    69  61  76 SE9       30.11F
PERU*          MOCLDY    74  64  72 SE10      30.10F
$$

ILZ005-006-012>014-019>023-120700-
NORTHEAST ILLINOIS

CITY           SKY/WX    TMP DP  RH WIND       PRES   REMARKS
CHICAGO-OHARE  MOCLDY    72  59  63 S6        30.11F
6HR MIN TEMP:  72; 6HR MAX TEMP:  76;

CHICAGO-MIDWAY CLOUDY    77  60  55 S9        30.11F
6HR MIN TEMP:  77; 6HR MAX TEMP:  80;

AURORA         MOCLDY    71  60  68 SE6       30.11F
6HR MIN TEMP:  70; 6HR MAX TEMP:  74; 6HR PCP: TRACE;

LANSING*       CLOUDY    72  60  65 S6        30.13F
JOLIET*        CLOUDY    72  59  64 S3        30.12F
WAUKEGAN       CLOUDY    70  61  73 S5        30.10F
6HR MIN TEMP:  66; 6HR MAX TEMP:  73;

DUPAGE AIRPORT CLOUDY    72  61  68 S6        30.11F
6HR MIN TEMP:  72; 6HR MAX TEMP:  75;

KANKAKEE*      CLOUDY    72  63  73 SE7       30.14S
WHEELING       CLOUDY    73  61  65 S5        30.13S
6HR MIN TEMP:  71; 6HR MAX TEMP:  76;

MORRIS*        CLOUDY    72  63  74 SE6       30.10F
ROMEOVILLE*    CLOUDY    72  60  67 S8        30.12S
NORTHERLY ISL    N/A     74  58  57 S3          N/A
$$

LMZ740>746-120700-
SOUTHERN LAKE MICHIGAN

STATION/POSITION SKY/WX   TEMP    WIND        PRES    VSBY  WAVE
                          AIR SEA DIR/SP/G                  HT/PER
                          (F)     (DEG/KT/KT) (MB)    (MI)  (FT/S)
SOUTHERN BUOY              63 60  160/  8/  8 1019.9F         0
WAUKEGAN HARBOR            63     170/  4/  4 1020.7F
HARRISON CRIB              73     180/ 12/ 13   N/A
BURNHAM HARBOR             74     160/  4/  6   N/A
CALUMET HARBOR             75     170/  4/  6 1020.8R
BURNS HARBOR               74     170/  5/  8 1021.0F
MICHIGAN CITY              73     140/  6/  8   N/A
$$

ILZ025>027-034>036-040-047-049-050-058-095>099-120700-
WEST-CENTRAL ILLINOIS

CITY           SKY/WX    TMP DP  RH WIND       PRES   REMARKS
QUINCY         CLEAR     77  71  82 S5        30.07S
GALESBURG*     CLOUDY    74  68  81 SE5       30.06F
MACOMB*        CLOUDY    73  70  91 S6        30.09S
JACKSONVILLE*  CLOUDY    78  71  80 SE5       30.10S HX  80
PITTSFIELD*    MOCLDY    79  71  76 S6        30.09S HX  82
$$

ILZ028>032-037-038-041>044-048-051>054-059>061-120700-
CENTRAL ILLINOIS

CITY           SKY/WX    TMP DP  RH WIND       PRES   REMARKS
PONTIAC        CLOUDY    72  66  83 SE6       30.11F
BLOOMINGTON    CLOUDY    71  64  78 SE8       30.13F
DECATUR        CLOUDY    76  66  71 S8        30.13S
PEORIA         CLOUDY    79  64  60 S8        30.08F HX  81
6HR MIN TEMP:  76; 6HR MAX TEMP:  79; 6HR PCP: TRACE;

LACON*         CLOUDY    73  65  76 S5        30.08F
LINCOLN*       CLOUDY    74  66  75 S3        30.08F
SPRINGFIELD    MOCLDY    79  68  69 S9        30.10S HX  81
6HR MIN TEMP:  78; 6HR MAX TEMP:  82; 6HR PCP: TRACE;

TAYLORVILLE    CLOUDY    73  66  78 S7        30.12S
$$

ILZ033-039-045-046-055>057-062-063-120700-
EAST-CENTRAL ILLINOIS

CITY           SKY/WX    TMP DP  RH WIND       PRES   REMARKS
CHAMPAIGN      CLOUDY    70  66  87 E7        30.15R
RANTOUL*       CLOUDY    72  64  76 E5        30.16S
MATTOON        CLOUDY    72  66  81 S6        30.13S
PARIS*         DRIZZLE   69  66  89 CALM      30.16R
$$

ILZ079-100>102-120700-
SOUTHWEST ILLINOIS

CITY           SKY/WX    TMP DP  RH WIND       PRES   REMARKS
ALTON          CLOUDY    78  73  84 S6        30.12S HX  81
BELLEVILLE     CLOUDY    76  72  87 SE2       30.11R
CAHOKIA*       MOCLDY    77  71  82 CALM      30.11R
SPARTA*        PTCLDY    73  68  83 SE5       30.13S
$$

ILZ064>066-069>071-074>076-080>082-084>086-088>090-092>094-120700-
SOUTH-CENTRAL ILLINOIS

CITY           SKY/WX    TMP DP  RH WIND       PRES   REMARKS
CARBONDALE     CLEAR     74  67  78 S3        30.13S
6HR MIN TEMP:  74; 6HR MAX TEMP:  86;

CAIRO*         CLEAR     74  68  81 CALM      30.14S
MARION         CLEAR     73  68  83 CALM      30.15S
MT. VERNON     MOCLDY    73  66  78 CALM      30.15S
CENTRALIA*     LGT RAIN  74  67  78 S6        30.14R
SALEM*         CLOUDY    79  69  72 S3        30.15R HX  81
METROPOLIS*    CLEAR     69  67  93 CALM      30.14F FOG
$$

ILZ067-068-072-073-078-083-087-091-120700-
SOUTHEAST ILLINOIS

CITY           SKY/WX    TMP DP  RH WIND       PRES   REMARKS
FLORA*         CLOUDY    72  68  88 S5        30.15S
HARRISBURG*    CLEAR     70  69  98 CALM      30.15S
ROBINSON*      LGT RAIN  72  68  88 CALM      30.15F
CARMI*         PTCLDY    70  69  97 CALM      30.14S FOG
$$

ABBREVIATIONS USED IN REMARKS
   TC - TEMPERATURE IN CELSIUS
  WCI - WIND CHILL INDEX
   HX - HEAT INDEX
  VSB - VISIBILITY
$$




USA.gov is the U.S. government's official web portal to all federal, state and local government web resources and services.